Regional Weather Roundup
Issued by NWS State College, PA

Home | Current Version | Previous Version | Graphics & Text | Print | Product List | Glossary On
Versions: 1 2 3 4 5 6 7 8 9 10 11 12 13 14 15 16 17 18 19 20 21 22 23 24 25 26 27 28 29 30 31 32 33 34 35 36 37 38 39 40 41 42 43 44 45 46 47 48 49 50
000
ASUS41 KCTP 070003
RWRCTP

REGIONAL WEATHER ROUNDUP
NATIONAL WEATHER SERVICE STATE COLLEGE PA
700 PM EST FRI MAR 06 2015

Note: "fair" indicates few or no clouds below 12,000 feet with no
significant weather and/or obstructions to visibility.

* = STATION THAT DOES NOT REPORT PRECIPITATION /E.G. RAIN...SNOW...ETC/
    THUNDER OR FOG.

PAZ002>004-007>009-013>016-020>023-029>032-070100-
WESTERN PENNSYLVANIA

CITY           SKY/WX    TMP DP  RH WIND       PRES   REMARKS
ERIE           PTCLDY    21   4  47 SW9       30.30F WCI  11
MEADVILLE      PTCLDY    19   2  47 SW7       30.26F WCI  10
FRANKLIN*      PTCLDY    18   1  49 SW6       30.28S WCI   9
NEW CASTLE     FAIR      21   5  50 CALM      30.33S
BEAVER COUNTY  CLEAR     21   5  49 S7        30.31F WCI  13
BUTLER*        PTCLDY    19   5  53 SW7       30.33S WCI  10
PITTSBURGH INT MOCLDY    21   8  57 SW9       30.33S WCI  11
PITTSBURGH     CLEAR     21   9  59 S7        30.32F WCI  12
INDIANA*       CLEAR     14   7  73 CALM      30.35S
LATROBE        MOCLDY    18  10  73 S7        30.36F WCI   8
WASHINGTON CO* PTCLDY    19  10  68 SW9       30.36S WCI   9
$$

PAZ004>006-010>012-017>019-024>028-033>037-041-042-045-046-049>053-070100-
CENTRAL PENNSYLVANIA

CITY           SKY/WX    TMP DP  RH WIND       PRES   REMARKS
BRADFORD       PTCLDY    18  -1  43 S8        30.19F WCI   8
DUBOIS         PTCLDY    17   4  56 VRB5      30.24F WCI  10
CLEARFIELD     CLEAR     19   2  47 SW8       30.28F WCI   9
JOHNSTOWN      CLEAR     17   4  56 W5        30.22F WCI  10
ALTOONA        PTCLDY    22   5  48 S7        30.29S WCI  13
STATE COLLEGE  CLEAR     23   3  42 SW6       30.29F
WILLIAMSPORT   PTCLDY    22   2  42 E3        30.34F
SELINSGROVE    PTCLDY    21   2  43 SW3       30.38F
FT INDIANTOWN  PTCLDY    19   3  48 SW2       30.39F
CAPITAL CITY   PTCLDY    19   7  59 CALM      30.41F
HARRISBURG     MOCLDY    19   6  57 CALM      30.41F
YORK           MOCLDY     9   2  73 CALM      30.40F
$$

PAZ038>040-043-044-047-048-054-055-060>062-067>071-070100-
EASTERN PENNSYLVANIA

CITY           SKY/WX    TMP DP  RH WIND       PRES   REMARKS
SCRANTON       MOCLDY    21  -3  35 SW6       30.31F WCI  13
MOUNT POCONO   MOCLDY    17  -3  41 W6        30.24S WCI   9
ALLENTOWN      MOCLDY    17   4  56 SW6       30.39F WCI   9
QUAKERTOWN*    MOCLDY    18   9  68 SW3       30.40S
READING        MOCLDY    19   5  54 S6        30.40F WCI  11
LANCASTER      MOCLDY    19   8  62 S3        30.40F
COATESVILLE    MOCLDY    18   7  62 CALM      30.40F
POTTSTOWN      MOCLDY    20   8  60 SW5       30.43S WCI  13
BLUE BELL      PTCLDY    18  16  93 CALM      30.41F
DOYLESTOWN     PTCLDY    19   7  59 SW5       30.40S WCI  12
WILLOW GROVE   NOT AVBL
NORTH PHILA    PTCLDY    24   8  50 CALM      30.45S
PHILADELPHIA   MOCLDY    23  10  57 S8        30.46R WCI  14
$$



USA.gov is the U.S. government's official web portal to all federal, state and local government web resources and services.